EW3693 Weather Reports


time (UTC)temp
F
wind
direction
speed
knots
gust
knots
rain 1hr
in
rain 24hr
in
rain mn
in
humidity
%
barometer
mb
20260504231024 51 0.0 0.9 0.00 0.00 0.00 93 1012.9
20260504230024 51 23 0.9 2.6 0.00 0.00 0.00 93 1013.0
20260504225024 51 0.0 1.7 0.00 0.00 0.00 93 1013.0
20260504224024 51 0.0 1.7 0.00 0.00 0.00 93 1013.0
20260504223024 51 0.0 2.6 0.00 0.00 0.00 93 1013.0
20260504222044 51 0.0 1.7 0.00 0.00 0.00 93 1013.2
20260504221024 51 0.0 1.7 0.00 0.00 0.00 92 1013.1
20260504220024 51 0.0 1.7 0.00 0.00 0.00 92 1013.2
20260504215024 51 0.0 1.7 0.00 0.00 0.00 92 1013.2
20260504214024 51 0 0.9 2.6 0.00 0.00 0.00 92 1013.2
20260504213024 51 23 0.9 1.7 0.00 0.00 0.00 92 1013.2
20260504212024 51 0 1.7 3.5 0.00 0.00 0.00 91 1013.2
20260504211104 51 0 1.7 3.5 0.00 0.00 0.00 91 1013.3
20260504210024 51 0 0.9 2.6 0.00 0.00 0.00 91 1013.2
20260504205044 52 0 1.7 3.5 0.00 0.00 0.00 91 1013.3
20260504204024 52 0 0.9 3.5 0.00 0.00 0.00 91 1013.3
20260504203024 52 0 1.7 2.6 0.00 0.00 0.00 90 1013.3
20260504202024 52 0.0 0.9 0.00 0.00 0.00 89 1013.3
20260504201024 53 0.0 0.9 0.00 0.00 0.00 88 1013.3
20260504200024 54 0.0 0.9 0.00 0.00 0.00 88 1013.1
20260504195023 54 45 0.9 1.7 0.00 0.00 0.00 88 1013.1
20260504194024 54 0.0 1.7 0.00 0.00 0.00 87 1013.1
20260504193024 54 0.0 1.7 0.00 0.00 0.00 87 1013.2
20260504192023 55 0.0 0.9 0.00 0.00 0.00 86 1013.2
20260504191023 55 0.0 0.9 0.00 0.00 0.00 85 1013.1
20260504190023 56 0.0 0.9 0.00 0.00 0.00 84 1013.1
20260504185024 57 0.0 0.9 0.00 0.00 0.00 83 1013.1
20260504184023 57 0.0 1.7 0.00 0.00 0.00 82 1013.1
20260504183023 58 45 0.9 3.5 0.00 0.00 0.00 82 1012.9
20260504182046 59 45 0.9 2.6 0.00 0.00 0.00 81 1012.8
20260504181045 59 45 0.9 2.6 0.00 0.00 0.00 80 1012.8
20260504180025 60 45 2.6 5.2 0.00 0.00 0.00 80 1012.8
20260504175025 60 0.0 1.7 0.00 0.00 0.00 80 1012.7
20260504174027 61 45 0.9 2.6 0.00 0.00 0.00 78 1012.7
20260504173027 62 0.0 1.7 0.00 0.00 0.00 76 1012.7
20260504172023 63 0 0.9 4.3 0.00 0.00 0.00 72 1012.6
20260504171027 64 338 6.1 8.7 0.00 0.00 0.00 67 1012.6
20260504151027 68 0 6.1 10.4 0.00 0.00 0.00 63 1012.8
20260504141026 67 0 8.7 13.0 0.00 0.00 0.00 65 1013.2
20260504081026 65 0 7.8 10.4 0.00 0.00 0.00 78 1013.0
20260504060105 60 0 10.4 13.9 0.00 0.00 0.00 86 1011.7
20260504045026 57 0 6.1 10.4 0.00 0.00 0.00 91 1011.1
20260504044025 57 0 7.0 10.4 0.00 0.00 0.00 90 1011.0
20260504043026 57 0 5.2 10.4 0.00 0.00 0.00 90 1010.9
20260504042025 57 0 5.2 9.6 0.00 0.00 0.00 89 1010.8
20260504041046 57 0 5.2 8.7 0.00 0.00 0.00 89 1010.8
20260504040025 58 0 6.1 9.6 0.00 0.00 0.00 89 1010.8
20260504035025 58 0 6.1 9.6 0.00 0.00 0.00 89 1010.7
20260504034106 58 0 7.0 9.6 0.00 0.00 0.00 90 1010.8
20260504033025 58 0 6.1 10.4 0.00 0.00 0.00 90 1010.8
20260504032025 57 0 6.1 9.6 0.00 0.00 0.00 90 1010.8
20260504031025 57 0 5.2 7.8 0.00 0.00 0.00 90 1010.8
20260504030025 57 0 4.3 7.8 0.00 0.00 0.00 90 1010.8
20260504025025 57 0 3.5 7.8 0.00 0.00 0.00 90 1010.7
20260504024025 57 0 2.6 5.2 0.00 0.00 0.00 90 1010.7
20260504023025 57 0 3.5 7.0 0.00 0.00 0.00 90 1010.7
20260504022025 56 0 3.5 7.0 0.00 0.00 0.00 90 1010.7
20260504021046 56 0 3.5 7.8 0.00 0.00 0.00 90 1010.8
20260504020025 56 0 4.3 7.8 0.00 0.00 0.00 90 1010.7
20260504015025 56 0 4.3 7.0 0.00 0.00 0.00 89 1010.7
20260504014105 56 0 2.6 5.2 0.00 0.00 0.00 88 1010.6
20260504013045 57 0 3.5 7.0 0.00 0.00 0.00 88 1010.6
20260504012026 57 0 4.3 7.0 0.00 0.00 0.00 87 1010.6
20260504011029 57 0 4.3 7.0 0.00 0.00 0.00 87 1010.7
20260504010029 57 0 6.1 11.3 0.00 0.00 0.00 87 1010.6
20260504005029 58 0 8.7 11.3 0.00 0.00 0.00 86 1010.5
20260504004049 58 0 7.8 10.4 0.00 0.00 0.00 86 1010.5
20260504003029 58 0 6.1 7.8 0.00 0.00 0.00 86 1010.4
20260504002028 58 0 4.3 7.8 0.00 0.00 0.00 86 1010.5
20260504001029 58 0 4.3 7.8 0.00 0.00 0.00 85 1010.6
20260504000029 59 0 6.1 8.7 0.00 0.00 0.00 84 1010.5
20260503235029 59 0 8.7 12.2 0.00 0.00 0.00 84 1010.5
20260503234029 59 0 8.7 13.0 0.00 0.00 0.00 83 1010.5
20260503233028 59 0 6.1 9.6 0.00 0.00 0.00 82 1010.6
20260503232029 59 0 7.8 12.2 0.00 0.00 0.00 82 1010.6